Regional Weather Roundup
Issued by NWS

Home | Current Version | Previous Version | Graphics & Text | Print | Product List | Glossary On
Versions: 1 2 3 4 5 6 7 8 9 10 11 12 13 14 15 16 17 18 19 20 21 22 23 24 25 26 27 28 29 30 31 32 33 34 35 36 37 38 39 40 41 42 43 44 45 46 47 48
000
ASUS45 KBOU 281807
RWRCO

WEATHER ROUNDUP FOR COLORADO
NATIONAL WEATHER SERVICE DENVER/BOULDER CO
1100 AM MST WED JAN 28 2015

NOTE: "FAIR" INDICATES FEW OR NO CLOUDS BELOW 12000 FEET WITH NO
SIGNIFICANT WEATHER AND/OR OBSTRUCTIONS TO VISIBILITY.

COZ001>005-013-030-031-281900-
...NORTHWEST COLORADO...

CITY           SKY/WX    TMP DP  RH WIND       PRES   REMARKS
CRAIG          CLOUDY    39  33  79 CALM      30.27R
HAYDEN         PTSUNNY   37  28  70 W6        30.27R
MEEKER         MOSUNNY   44  30  57 NE3       30.28S
MOUNT WERNER   NOT AVBL
STEAMBOAT SPGS CLOUDY    38  29  70 CALM      30.26S
WALDEN         CLOUDY    36  27  69 S6        30.21S
$$

COZ006>008-011-281900-
...WEST CENTRAL VALLEYS...

CITY           SKY/WX    TMP DP  RH WIND       PRES   REMARKS
GRAND JUNCTION SUNNY     43  30  60 CALM      30.30F
MONTROSE       SUNNY     45  31  58 CALM      30.32F
EAGLE          PTSUNNY   43  30  61 SW16      30.29S
RIFLE          MOSUNNY   39  29  67 CALM      30.31S
DELTA          SUNNY     44  31  61 CALM      30.31F
NUCLA          SUNNY     46  34  61 CALM      30.34S
$$

COZ017>023-064>068-281900-
...SOUTHWEST COLORADO...

CITY           SKY/WX    TMP DP  RH WIND       PRES   REMARKS
DURANGO        MOSUNNY   42  31  64 CALM      30.30F
CORTEZ         MOSUNNY   50  35  56 VRB3      30.31S
PAGOSA SPRINGS MOSUNNY   42  30  62 S6        30.31S
TELLURIDE        N/A    N/A N/A N/A MISG        N/A
WOLF CREEK PAS NOT AVBL
$$

COZ009-010-012-014-032>034-037-058>063-281900-
...CENTRAL COLORADO...

CITY           SKY/WX    TMP DP  RH WIND       PRES   REMARKS
ASPEN          PTSUNNY   39  27  62 CALM      30.28S
BUENA VISTA    PTSUNNY   45  16  31 W22G32    30.22S
COPPER MTN     FLURRIES  28  18  64 W30       30.27F WCI  13
BERTHOUD PASS  PTSUNNY   19  12  73 W44G59    30.20R WCI  -2
COTTONWOOD PAS MOSUNNY   37  18  44 W25G39    30.24S
GUNNISON       PTSUNNY   21  16  79 CALM      30.34F
KREMMLING      CLOUDY    37  23  56 SW10      30.25S
LEADVILLE      PTSUNNY   31  18  58 NW14G23   30.26R WCI  21
MONARCH PASS   CLOUDY    23  21  93 MISG      30.39R
SALIDA         MOSUNNY   49  20  32 SW22G29   30.29S
SUNLIGHT       CLOUDY    30  27  86 CALM        N/A
WILKERSON PASS SUNNY     30  14  51 W15G26    30.27R WCI  19
$$

COZ069>075-281900-
...SAN LUIS VALLEY/SANGRE DE CRISTO MOUNTAINS...

CITY           SKY/WX    TMP DP  RH WIND       PRES   REMARKS
ALAMOSA        SUNNY     45  25  45 NE7       30.25F
LA VETA PASS   NOT AVBL
SAGUACHE       MOSUNNY   37  28  70 SE5       30.28S
$$

COZ035-036-038>040-281900-
...NORTHERN COLORADO FRONT RANGE...

CITY           SKY/WX    TMP DP  RH WIND       PRES   REMARKS
DENVER INTL AP MOSUNNY   57  19  22 W24G33    30.07F
DMNS CITY PARK   N/A     57  16  20 NW12G31   30.08S
AURORA         MOSUNNY   55  19  23 NW28G35   30.08F
FRONT RANGE AP MOSUNNY   57  25  28 W25G35    30.09S
ERIE MUNI ARPT SUNNY     58  19  22 W20G31    30.08S
BOULDER MUN AP SUNNY     54  21  28 W35G45    30.03F
CENTENNIAL     MOSUNNY   55  19  24 W10       30.09S
BROOMFIELD     MOSUNNY   55  19  24 W38G47    30.08F
FORT COLLINS   MOSUNNY   54  25  32 W15       30.06F
LONGMONT       MOSUNNY   59  21  23 W18G30    30.07F
$$

COZ041-046-047-076>085-087-088-281900-
...PIKES PEAK/PALMER DIVIDE AND SOUTHERN FOOTHILLS...

CITY           SKY/WX    TMP DP  RH WIND       PRES   REMARKS
COLO. SPRINGS  MOSUNNY   55  15  20 NW22G37   30.11R
A. F. ACADEMY  SUNNY     53  12  19 N14G30    30.11S
ELLICOTT       SUNNY    N/A N/A N/A NW21G26   30.09R
FALCON         SUNNY     53  13  20 W24G33    30.12S
FORT CARSON    SUNNY     57  19  23 SW3       30.09R
LIMON          SUNNY     56  20  24 NW40G47   30.04F
MONUMENT HILL  SUNNY     48  18  29 NW15G21   30.12R
TRINIDAD       SUNNY     58  28  32 NW7       30.10S
$$

COZ042>045-048>051-090-091-281900-
...NORTHEAST COLORADO...

CITY           SKY/WX    TMP DP  RH WIND       PRES   REMARKS
GREELEY ARPT   SUNNY     57  28  33 NW22G31   30.04S
AKRON          SUNNY     57  27  31 NW25G38   30.01S
BURLINGTON     SUNNY     59  31  34 NW28G33   30.00S
WRAY           SUNNY     63  29  27 NW32G41   29.96F
STERLING       SUNNY     63  32  31 NW29G41   29.99R
HOLYOKE        SUNNY     61  30  31 NW28G36   29.95S
FORT MORGAN    SUNNY     58  26  28 W28G41    30.03S
$$

COZ086-089-092>099-281900-
...SOUTHEAST COLORADO...

CITY           SKY/WX    TMP DP  RH WIND       PRES   REMARKS
PUEBLO         SUNNY     63  21  20 NW30G39   30.05F
LA JUNTA       SUNNY     65  25  22 W15       30.03F
LAMAR          SUNNY     60  27  28 W6        30.00F
SPRINGFIELD      N/A     66  21  18 NW22G29   30.01F
$$


USA.gov is the U.S. government's official web portal to all federal, state and local government web resources and services.